Theta_e
275 274 274 274 274 274 274 274 276 276 277 276 276 276 276 275 275 275 275 275 275 277
274 273 273 273 273 273 274 275 275 276 275 275 276 275 275 275 274 275 276 276 278 279
273 273 273 273 272 273 273 274 274 274 274 274 274 275 274 274 275 274 274 275 275 276
273 273 272 272 272 272 273 273 273 273 273 273 273 274 273 273 273 273 273 273 273 274
272 272 271 270 271 272 272 272 272 273 272 271 271 272 271 271 271 272 272 273 273 274
270 270 270 270 271 271 271 271 271 271 270 269 270 270 270 270 270 271 271 272 272 273
269 269 269 270 270 270 270 269 269 269 269 269 269 269 270 270 270 270 271 272 273 273
269 269 269 269 269 269 269 268 268 268 267 268 268 269 270 270 271 271 271 272 273 274
268 268 268 268 267 267 267 266 266 267 267 267 268 271 273 274 273 274 273 273 274 275
267 266 266 266 265 265 264 265 266 265 265 265 266 271 274 275 274 275 274 273 274 274
265 264 264 263 263 263 264 265 264 264 265 265 266 271 273 275 275 275 275 275 274 274
263 262 261 260 261 263 264 263 263 264 263 263 264 270 273 274 273 274 275 276 275 274
262 260 260 261 261 263 262 263 264 263 264 264 264 271 272 274 273 272 275 275 275 276
260 259 260 261 261 261 261 262 261 263 264 265 267 267 272 274 272 272 274 274 274 275
Wind_Speed
6 4 5 8 8 9 10 10 12 12 12 13 14 13 14 13 13 14 14 19 18 16
6 6 8 10 10 9 11 11 14 15 15 15 15 15 16 13 16 15 14 15 15 13
6 8 8 9 12 12 13 14 15 17 16 17 16 16 16 15 16 17 14 14 16 17
7 7 8 10 12 13 13 15 16 17 18 17 18 17 17 18 19 20 18 16 19 22
7 8 9 11 12 13 15 15 17 17 18 18 18 18 19 20 18 20 19 17 20 18
7 8 10 11 13 14 15 15 16 17 18 19 19 19 18 19 20 20 19 20 20 19
8 9 10 12 13 14 14 15 16 16 18 19 19 20 20 19 19 20 19 19 20 20
8 10 11 12 13 14 15 15 16 19 19 19 18 14 18 19 19 20 20 19 19 19
9 10 11 12 13 14 15 16 17 17 18 20 15 26 32 28 19 19 19 18 17 18
8 10 12 12 14 14 16 17 17 18 18 20 20 31 32 33 19 18 18 18 17 17
8 10 11 12 14 15 14 17 17 18 19 19 18 32 33 33 21 19 21 19 19 19
9 10 12 12 14 15 15 16 16 15 19 19 20 33 33 29 18 19 20 17 17 17
9 9 11 13 15 15 14 16 15 17 17 21 20 28 33 28 14 17 18 11 15 25
9 9 10 12 13 14 14 14 15 17 16 17 18 20 32 33 15 14 15 9 10 11
Wind_Direction
276 286 275 276 279 284 285 287 292 287 280 282 282 278 278 275 270 265 269 261 259 261
281 273 273 281 287 287 285 291 296 294 290 286 283 280 282 274 271 269 270 279 271 261
269 272 279 291 287 288 291 293 294 293 289 289 287 284 282 278 272 271 266 258 261 260
279 291 293 289 290 290 292 293 293 293 293 293 293 288 284 278 277 271 268 267 266 260
300 303 294 289 291 297 296 294 294 297 297 295 291 287 282 280 275 274 273 265 265 267
300 297 294 299 299 298 294 295 297 299 295 294 291 287 281 278 277 275 267 265 261 259
303 303 300 297 296 295 297 300 301 298 294 291 291 287 284 281 277 273 269 267 267 262
305 300 297 299 299 303 305 304 300 300 295 292 286 284 282 274 269 266 263 260 258 257
301 306 302 306 311 311 306 304 303 298 299 300 292 291 291 290 282 275 270 269 261 256
309 309 311 314 314 310 310 305 306 306 304 299 296 297 295 292 285 277 267 262 263 263
316 311 317 319 314 312 308 311 311 306 303 304 302 303 301 298 290 281 261 250 251 254
323 318 322 318 315 308 312 311 305 304 308 305 302 305 304 310 293 296 287 245 240 244
332 319 316 312 306 311 308 305 308 305 303 303 300 308 312 306 310 298 298 240 241 245
330 319 302 305 308 306 308 309 306 306 309 313 310 308 308 317 307 304 304 262 245 248